#timestamp,LO_Frequency,Hit,StdDev 
1539241215.8,286047000.6,N
1539241235.7,286047000.7,N
1539241255.5,286047000.8,N
1539241275.3,286046998.7,N
1539241295.2,286046996.9,Y
1539241315.0,286047001.1,P
1539241315.9,286047001.1,N
1539241335.7,286046998.5,N
1539241355.6,286046998.2,N
1539241375.4,286047000.4,N
1539241395.3,286046998.1,N
1539241415.1,286047000.7,N
1539241416.0,286047000.7,N
1539241435.8,286047000.6,N
1539241455.7,286047000.8,N
1539241475.5,286046999.3,N
1539241495.3,286046998.3,N
1539241515.2,286046999.1,N
1539241535.0,286047000.5,N
1539241535.9,286047000.5,N
1539241555.3,286046998.9,N
1539241575.1,286046998.6,N
1539241595.9,286046998.1,N
1539241615.7,286047000.7,N
1539241635.6,286047000.8,N
1539241655.4,286046999.2,N
1539241675.2,286046996.5,Y
1539241695.1,286046997.0,P
1539241696.0,286046997.0,N
1539241715.8,286046999.4,N
1539241735.7,286046999.1,N
1539241755.5,286046999.3,N
1539241775.3,286046999.2,N
1539241795.2,286046999.5,N
1539241815.0,286046998.6,N
1539241815.9,286046998.6,N
1539241835.8,286046999.3,N
1539241855.6,286046999.0,N
1539241875.4,286046997.0,Y
1539241895.3,286046998.3,P
1539241915.1,286047000.9,P
1539241935.8,286047000.2,N
1539241955.7,286047000.8,N
1539241975.5,286047000.8,N
1539241995.4,286047000.5,N
1539242015.2,286046999.8,N
1539242035.0,286047001.1,N
1539242035.9,286047001.1,N
1539242055.8,286046998.6,N
1539242075.6,286046999.4,N
1539242095.5,286046998.7,N
1539242115.3,286047001.1,N
1539242135.1,286047000.6,N
1539242155.9,286047000.4,N
1539242175.7,286047000.1,N
1539242195.5,286047001.8,N
1539242215.4,286047000.4,N
1539242235.2,286047000.0,N
1539242255.0,286047000.1,N
1539242256.0,286047000.1,N
1539242275.8,286047000.0,N
1539242295.6,286046998.6,N
1539242315.5,286047000.8,N
1539242335.3,286047000.0,N
1539242355.1,286046999.7,N
1539242375.9,286047000.0,N
1539242395.7,286047001.1,N
1539242415.5,286047001.1,N
1539242435.4,286047000.5,N
1539242455.2,286047000.2,N
1539242475.1,286047002.8,Y
1539242476.0,286047002.8,P
1539242495.8,286046999.7,N
1539242515.6,286047002.2,N
1539242535.5,286046999.8,N
1539242555.3,286047002.7,N
1539242575.2,286047000.8,N
1539242595.9,286047000.2,N
1539242615.7,286047002.0,N
1539242635.6,286047002.4,N
1539242655.4,286047000.6,N
1539242675.2,286047002.4,N
1539242695.1,286047001.0,N
1539242696.0,286047001.0,N
1539242715.8,286047001.2,N
1539242735.7,286047000.6,N
1539242755.5,286046999.8,N
1539242775.3,286046999.7,N
1539242795.2,286047000.2,N
1539242815.0,286047002.8,N
1539242815.9,286047002.8,N
1539242835.8,286047002.4,N
1539242855.6,286047002.8,N
1539242875.4,286047001.0,N
1539242895.3,286046998.3,N
1539242915.1,286046998.3,N
1539242935.9,286046999.0,N
1539242955.7,286046998.4,N
1539242975.5,286046998.2,N
1539242995.4,286047000.4,N
1539243015.2,286047000.4,N
1539243035.0,286047000.9,N
1539243036.0,286047000.9,N
1539243055.8,286047000.8,N
1539243075.6,286046998.1,N
1539243095.5,286047000.8,N
1539243115.3,286046998.1,N
1539243135.1,286047000.9,N
1539243155.9,286047000.4,N
1539243175.7,286047000.8,N
1539243195.6,286046999.3,N
1539243215.4,286047001.2,N
1539243235.2,286046998.6,N
1539243255.1,286047001.0,N
1539243256.0,286047001.0,N
1539243275.8,286047000.4,N
1539243295.7,286046999.9,N
1539243315.5,286047001.0,N
1539243335.3,286047000.5,N
1539243355.2,286047002.7,N
1539243375.0,286047002.7,N
1539243375.9,286047002.7,N
1539243395.8,286047002.4,N
1539243415.6,286046999.7,N
1539243435.4,286046999.9,N
1539243455.3,286047002.5,N
1539243475.1,286047002.3,N
1539243495.8,286047002.8,N
1539243515.7,286047000.1,N
1539243535.5,286047000.6,N
1539243555.4,286047000.3,N
1539243575.2,286046999.9,N
1539243595.0,286047002.6,N
1539243595.9,286047002.6,N
1539243615.8,286047001.7,N
1539243635.6,286047002.4,N
1539243655.5,286047000.1,N
1539243675.3,286047000.5,N
1539243695.1,286047002.7,N
1539243715.9,286047000.4,N
1539243735.7,286047004.0,Y
1539243755.6,286047002.3,P
1539243775.4,286047002.2,P
1539243795.2,286047001.8,P
1539243815.1,286047001.7,Y
1539243816.0,286047001.7,P
1539243835.8,286047001.2,P
1539243855.7,286047001.1,P
1539243875.5,286047001.2,Y
1539243895.3,286046997.2,P
1539243915.2,286046994.9,N
1539243935.0,286046993.3,N
1539243935.9,286046993.3,N
1539243955.7,286046996.2,N
1539243975.6,286046993.3,N
1539243995.4,286046995.1,N
1539244015.3,286046995.8,N
1539244035.1,286046995.6,N
1539244036.0,286046995.6,N
1539244055.8,286046995.5,N
1539244075.7,286046997.1,N
1539244095.5,286046995.4,N
1539244115.3,286046993.4,Y
1539244135.2,286047001.1,P
1539244155.0,286047002.8,N
1539244155.9,286047002.8,N
1539244175.8,286046999.8,N
1539244195.6,286047002.4,N
1539244215.4,286047003.9,N
1539244235.3,286047002.7,N
1539244255.1,286047004.4,N
1539244275.8,286047001.4,N
1539244295.7,286047004.0,N
1539244315.5,286047003.5,N
1539244335.8,286047003.7,N
1539244355.6,286047003.1,N
1539244375.5,286047005.6,N
1539244395.3,286047005.9,N
1539244415.1,286047007.6,Y
1539244435.9,286047002.4,P
1539244455.7,286047002.7,P
1539244475.5,286047002.2,P
1539244495.4,286047002.4,Y
1539244515.2,286046999.1,P
1539244535.1,286047000.6,N
1539244536.0,286047000.6,N
1539244555.8,286047002.7,N
1539244575.6,286047001.0,N
1539244595.5,286047000.9,N
1539244615.3,286047000.7,N
1539244635.1,286047000.5,N
1539244655.9,286046998.6,N
1539244675.7,286046999.5,N
1539244695.6,286046998.3,N
1539244715.4,286047001.2,N
1539244735.2,286046999.2,N
1539244755.1,286046999.5,N
1539244756.0,286046999.5,N
1539244775.8,286046999.6,N
1539244795.7,286046999.2,N
